Stations météo

réclame
Mon MeteoGroup
Waldmünchen, Allemagne (10782): Température de l'air & dewpoint: 18.05.2019 03:00:00 - 24.05.2019 03:00:00 (CEST)Waldmünchen, Allemagne (10782): Température de l'air 5cm & Température de l'air -5cm: 18.05.2019 03:00:00 - 24.05.2019 03:00:00 (CEST)Waldmünchen, Allemagne (10782): Température de l'air -20cm & Température de l'air -100cm: 18.05.2019 03:00:00 - 24.05.2019 03:00:00 (CEST)Waldmünchen, Allemagne (10782): Vitesse du vent & gusts: 18.05.2019 03:00:00 - 24.05.2019 03:00:00 (CEST)Waldmünchen, Allemagne (10782): Direction du vent: 18.05.2019 03:00:00 - 24.05.2019 03:00:00 (CEST)Waldmünchen, Allemagne (10782): reduced air pressure: 18.05.2019 03:00:00 - 24.05.2019 03:00:00 (CEST)Waldmünchen, Allemagne (10782): visibility: 18.05.2019 03:00:00 - 24.05.2019 03:00:00 (CEST)Waldmünchen, Allemagne (10782): Ensoleillement: 18.05.2019 03:00:00 - 24.05.2019 03:00:00 (CEST)Waldmünchen, Allemagne (10782): Quantités de précipitations: 18.05.2019 03:00:00 - 24.05.2019 03:00:00 (CEST)
Date & Time tt [°C] td [°C] tt 5cm [°C] tt -5cm [°C] tt -20cm [°C] tt -100cm [°C] ff [km/h] ff [knt] fx [km/h] fx [knt] dd ppp [hPa] vv [km] sd [min] rr [mm]
24.05.2019 03:00:00 6,2 5,7 4,2 10,4 13,9 10,2 4 2 5 3 E 1018,4 11 0 0,0
24.05.2019 02:00:00 6,9 6,6 4,3 11,2 14,3 10,2 3 1 9 5 SE 1018,7 12 0 0,0
24.05.2019 01:00:00 7,8 7,3 6,3 11,9 14,7 10,2 5 3 8 5 E 1018,7 9 0 0,0
24.05.2019 00:00:00 9,0 7,7 5,9 12,9 15,0 10,2 3 2 4 2 WNW 1018,4 27 0 0,0
23.05.2019 23:00:00 9,6 8,4 7,4 14,0 15,3 10,2 4 2 8 4 E 1018,4 24 0 0,0
23.05.2019 22:00:00 11,5 8,6 8,5 15,3 15,5 10,2 2 1 7 4 ENE 1018,0 41 0 0,0
23.05.2019 21:00:00 12,9 9,3 10,8 16,8 15,6 10,2 4 2 6 4 NE 1017,4 39 0 0,0
23.05.2019 20:00:00 16,0 8,0 14,0 18,3 15,6 10,2 5 3 10 6 WNW 1016,5 54 25 0,0
23.05.2019 19:00:00 16,8 6,3 16,4 19,3 15,5 10,2 5 3 22 12 NNW 1016,5 52 1 0,0
23.05.2019 18:00:00 17,2 5,0 17,4 20,9 15,2 10,2 6 4 25 13 WNW 1016,5 55 38 0,0
23.05.2019 17:00:00 17,8 6,2 23,7 21,3 14,7 10,1 16 8 25 14 WNW 1016,6 21 23 0,0
23.05.2019 16:00:00 16,3 4,8 18,5 22,6 14,2 10,1 12 6 25 13 SW 1017,2 43 40 0,0
23.05.2019 15:00:00 16,2 6,8 19,2 21,7 13,6 10,1 10 5 24 13 W 1017,6 32 19 0,0
23.05.2019 14:00:00 15,7 5,0 19,9 21,6 12,8 10,1 8 4 29 16 W 1018,2 29 37 0,0
23.05.2019 13:00:00 15,5 5,7 20,8 20,3 12,2 10,1 13 7 25 14 WNW 1018,8 36 32 0,0
23.05.2019 12:00:00 14,6 6,7 19,5 18,6 11,6 10,1 14 8 29 16 WNW 1019,3 20 46 0,0
23.05.2019 11:00:00 12,9 4,9 15,8 16,0 11,2 10,1 13 7 20 11 WNW 1019,9 28 27 0,0
23.05.2019 10:00:00 11,6 6,1 14,5 14,1 11,0 10,1 6 3 10 6 SW 1020,4 28 49 0,0
23.05.2019 09:00:00 9,9 6,7 12,0 11,2 11,0 10,1 4 2 7 4 SW 1020,8 19 38 0,0
23.05.2019 08:00:00 7,9 7,1 8,4 9,3 11,1 10,1 0 0 5 3 N 1021,1 6 6 0,0
23.05.2019 07:00:00 6,5 6,2 6,8 8,7 11,3 10,1 3 2 4 2 ENE 1020,8 8 2 0,0
23.05.2019 06:00:00 5,7 5,6 5,2 8,4 11,6 10,1 2 1 4 2 E 1021,0 0,6 0 0,0
23.05.2019 05:00:00 5,8 5,7 3,7 8,6 11,8 10,1 2 1 6 3 NE 1020,8 0,6 0 0,0
23.05.2019 04:00:00 6,1 5,8 4,7 9,1 12,1 10,1 5 3 7 4 NE 1020,8 8 0 0,0
23.05.2019 03:00:00 7,0 6,8 5,0 9,7 12,3 10,1 3 1 8 4 SE 1020,3 4,9 0 0,0
23.05.2019 02:00:00 8,3 7,7 6,2 10,3 12,5 10,1 4 2 6 4 NNE 1020,0 11 0 0,0
23.05.2019 01:00:00 8,6 8,1 7,7 10,4 12,7 10,1 4 2 6 3 NW 1020,0 12 0 0,0
23.05.2019 00:00:00 9,0 8,6 6,7 11,0 12,9 10,0 3 2 7 4 NE 1019,6 14 0 0,0
22.05.2019 23:00:00 10,1 8,8 8,1 11,8 13,1 10,0 6 3 15 8 W 1019,2 18 0 0,0
22.05.2019 22:00:00 11,5 9,2 10,7 12,5 13,2 10,0 11 6 15 8 W 1018,7 24 0 0,0
22.05.2019 21:00:00 11,9 8,9 11,2 13,0 13,3 10,0 13 7 24 13 W 1018,1 26 0 0,0
22.05.2019 20:00:00 12,5 9,4 12,1 13,5 13,3 10,0 11 6 27 15 W 1017,3 25 0 0,0
22.05.2019 19:00:00 13,0 9,2 13,1 13,9 13,3 10,0 18 10 33 18 W 1017,0 29 0 0,0
22.05.2019 18:00:00 13,2 9,2 13,3 14,4 13,3 10,0 23 12 35 19 W 1016,7 27 0 0,0
22.05.2019 17:00:00 13,7 9,2 14,0 14,9 13,1 10,0 24 13 38 20 W 1016,2 25 0 0,0
22.05.2019 16:00:00 14,3 9,1 15,8 15,3 12,9 10,0 24 13 36 19 W 1016,0 25 0 0,0
22.05.2019 15:00:00 14,2 9,6 16,1 15,4 12,7 10,0 21 12 37 20 W 1015,8 20 1 0,0
22.05.2019 14:00:00 13,7 9,9 16,5 13,9 12,7 10,0 19 10 34 19 W 1015,7 21 0 0,0
22.05.2019 13:00:00 12,5 9,2 13,1 13,2 12,6 10,0 21 11 33 18 W 1015,8 26 0 0,0
22.05.2019 12:00:00 12,1 9,5 12,9 12,9 12,7 10,0 19 10 32 18 W 1015,3 20 0 0,0
22.05.2019 11:00:00 11,9 9,7 12,4 12,6 12,7 9,9 18 10 31 17 W 1014,8 13 0 0,0
22.05.2019 10:00:00 11,5 9,5 11,3 12,3 12,8 9,9 14 8 34 18 W 1014,8 12 0 0,0
22.05.2019 09:00:00 11,6 10,2 11,2 12,4 12,9 9,9 14 8 29 16 W 1014,1 9 0 0,0
22.05.2019 08:00:00 11,6 10,7 11,4 12,3 12,9 9,9 13 7 20 11 W 1013,5 8 0 0,0
22.05.2019 07:00:00 11,6 10,6 11,3 12,4 13,0 9,9 14 7 26 14 W 1013,1 8 0 0,0
22.05.2019 06:00:00 11,6 10,9 11,3 12,5 13,1 9,9 14 7 23 13 W 1012,6 7 0 0,0
22.05.2019 05:00:00 12,0 10,4 11,6 12,7 13,2 9,9 16 9 28 15 WNW 1012,1 10 0 0,0
22.05.2019 04:00:00 12,2 11,0 11,8 12,9 13,3 9,9 8 4 23 12 WNW 1011,7 12 0 0,0
22.05.2019 03:00:00 12,4 11,1 12,0 13,1 13,4 9,9 10 5 22 12 WNW 1011,5 17 0 0,0
22.05.2019 02:00:00 12,6 12,0 12,3 13,2 13,5 9,9 6 4 16 9 W 1011,1 12 0 0,0
22.05.2019 01:00:00 12,6 12,0 12,2 13,4 13,6 9,9 6 3 13 7 W 1010,8 12 0 0,0
22.05.2019 00:00:00 12,8 12,2 12,5 13,6 13,7 9,8 8 4 16 9 WSW 1010,4 11 0 0,0
21.05.2019 23:00:00 13,0 12,5 12,7 13,8 13,8 9,8 11 6 14 8 WSW 1010,1 6 0 0,0
21.05.2019 22:00:00 13,0 12,6 12,7 14,2 13,9 9,8 8 5 26 14 WSW 1009,7 6 0 0,5
21.05.2019 21:00:00 13,4 12,5 13,0 14,6 13,9 9,8 6 3 14 7 SW 1008,9 10 0 0,0
21.05.2019 20:00:00 13,8 12,7 13,6 15,0 13,9 9,8 8 4 16 9 SSW 1007,9 20 0 0,0
21.05.2019 19:00:00 13,5 12,6 13,4 15,3 13,8 9,8 11 6 16 9 SW 1007,8 4,1 0 0,6
21.05.2019 18:00:00 13,7 11,9 14,3 15,5 13,7 9,8 11 6 16 9 SW 1007,3 21 0 0,0
21.05.2019 17:00:00 13,5 12,1 14,4 15,8 13,6 9,8 15 8 24 13 SW 1007,2 20 0 0,0
21.05.2019 16:00:00 13,7 11,9 15,1 15,9 13,5 9,8 16 9 21 12 SW 1006,5 22 0 0,0
21.05.2019 15:00:00 13,5 11,7 15,3 15,0 13,4 9,7 14 8 21 11 SW 1006,3 24 0 0,0
21.05.2019 14:00:00 12,5 11,8 13,1 14,6 13,3 9,7 15 8 24 13 SW 1005,9 19 0 0,2
21.05.2019 13:00:00 12,6 11,9 13,4 14,7 13,2 9,7 15 8 28 15 WSW 1005,5 7 0 1,5
21.05.2019 12:00:00 12,4 11,6 13,1 14,8 13,1 9,7 21 12 33 18 W 1004,8 12 0 1,3
21.05.2019 11:00:00 12,7 11,7 13,3 14,3 13,0 9,7 22 12 35 19 WSW 1004,0 8 0 3,6
21.05.2019 10:00:00 12,3 11,6 12,6 14,5 12,9 9,7 6 4 15 8 SSE 1003,5 7 0 2,2
21.05.2019 09:00:00 12,8 11,7 14,0 13,9 12,9 9,7 11 6 15 8 SE 1002,9 18 0 0,1
21.05.2019 08:00:00 12,2 11,2 12,5 13,3 12,9 9,7 8 4 14 7 SE 1002,5 7 0 0,2
21.05.2019 07:00:00 11,7 11,1 12,3 12,6 13,0 9,6 8 5 13 7 SSE 1002,4 4,8 0 0,0
21.05.2019 06:00:00 11,5 11,0 11,6 12,5 13,1 9,6 4 2 7 4 SE 1002,0 5 0 0,0
21.05.2019 05:00:00 11,4 11,1 11,4 12,5 13,2 9,6 0 0 6 3 N 1001,9 7 0 0,0
21.05.2019 04:00:00 11,5 11,0 11,3 12,7 13,4 9,6 2 1 6 4 NE 1001,7 7 0 0,0
21.05.2019 03:00:00 11,4 11,0 11,1 12,9 13,5 9,6 5 3 6 4 ESE 1001,7 10 0 0,0
21.05.2019 02:00:00 11,6 11,4 11,5 13,1 13,6 9,6 4 2 5 3 ENE 1001,6 7 0 0,0
21.05.2019 01:00:00 11,7 11,0 11,5 13,3 13,8 9,6 3 2 5 3 SE 1001,6 15 0 0,0
21.05.2019 00:00:00 11,9 10,9 11,6 13,5 13,9 9,5 4 2 9 5 SSE 1001,8 14 0 0,0
20.05.2019 23:00:00 12,1 11,4 11,7 13,8 14,0 9,5 4 2 6 4 SSW 1001,4 10 0 0,0
20.05.2019 22:00:00 12,2 11,4 11,8 14,2 14,1 9,5 3 2 10 6 SE 1001,4 7 0 0,4
20.05.2019 21:00:00 12,6 12,2 12,6 14,7 14,2 9,5 3 1 5 3 ENE 1001,1 4,9 0 0,4
20.05.2019 20:00:00 13,0 12,4 12,8 15,2 14,2 9,5 2 1 4 2 E 1000,8 7 0 0,5
20.05.2019 19:00:00 13,5 12,0 13,4 15,9 14,1 9,5 0 0 8 5 N 1000,6 9 0 0,4
20.05.2019 18:00:00 13,9 11,5 14,1 16,6 14,0 9,4 5 3 11 6 NE 1000,4 18 0 0,1
20.05.2019 17:00:00 13,8 11,5 14,4 16,4 13,9 9,4 9 5 15 8 NE 1000,7 11 0 0,3
20.05.2019 16:00:00 13,4 12,0 14,5 15,7 13,8 9,4 3 2 6 4 NE 1001,0 8 0 1,6
20.05.2019 15:00:00 13,0 12,0 13,5 15,2 13,7 9,4 5 3 23 12 NE 1001,2 4,1 0 5,9
20.05.2019 14:00:00 14,1 11,5 13,6 16,3 13,6 9,4 3 2 10 5 NNW 1001,0 4,5 0 1,0
20.05.2019 13:00:00 14,1 12,5 14,7 15,7 13,6 9,4 7 4 10 5 NNW 1000,9 3,2 0 1,3
20.05.2019 12:00:00 13,8 12,3 14,2 14,6 13,5 9,4 7 4 18 10 NNE 1001,2 4,3 0 1,2
20.05.2019 11:00:00 14,6 10,8 15,2 14,4 13,5 9,3 8 4 16 9 N 1001,1 16 0 0,0
20.05.2019 10:00:00 14,2 10,2 14,1 14,3 13,5 9,3 17 9 26 14 E 1001,1 18 0 0,0
20.05.2019 09:00:00 14,0 10,3 14,2 14,1 13,6 9,3 13 7 23 12 ENE 1000,7 16 0 0,0
20.05.2019 08:00:00 13,8 10,5 14,1 13,6 13,7 9,3 6 4 23 12 E 1000,7 14 0 0,0
20.05.2019 07:00:00 13,0 10,6 13,0 13,0 13,8 9,3 7 4 14 8 NW 1001,1 11 0 0,0
20.05.2019 06:00:00 13,0 10,5 12,4 12,9 14,0 9,3 6 3 11 6 N 1001,3 12 0 0,0
20.05.2019 05:00:00 12,8 10,3 12,0 12,9 14,2 9,3 7 4 23 13 NNW 1001,3 13 0 0,0
20.05.2019 04:00:00 13,0 10,1 12,4 13,2 14,5 9,3 19 10 29 16 NE 1001,5 17 0 0,0
20.05.2019 03:00:00 14,0 10,3 12,6 13,5 14,7 9,2 16 9 30 16 NNE 1001,4 18 0 0,0
20.05.2019 02:00:00 14,1 10,0 13,3 13,7 15,0 9,2 23 12 29 16 NNE 1002,0 20 0 0,0
20.05.2019 01:00:00 14,4 9,9 13,2 13,8 15,4 9,2 19 10 24 13 NNE 1002,2 22 0 0,0
20.05.2019 00:00:00 13,7 9,3 11,3 14,4 15,7 9,2 8 5 22 12 NE 1002,0 23 0 0,0
19.05.2019 23:00:00 15,1 9,4 12,1 15,3 16,0 9,2 11 6 17 9 NNW 1001,9 29 0 0,0
19.05.2019 22:00:00 15,7 8,4 13,7 16,6 16,3 9,2 10 5 26 14 NNE 1001,8 41 0 0,0
19.05.2019 21:00:00 16,0 8,7 14,6 18,0 16,4 9,2 6 4 19 10 NE 1001,8 37 0 0,0
19.05.2019 20:00:00 17,3 7,7 16,8 19,5 16,4 9,2 11 6 44 24 ESE 1001,4 41 41 0,0
19.05.2019 19:00:00 18,2 8,5 18,7 21,3 16,3 9,2 30 16 51 28 E 1001,5 42 23 0,0
19.05.2019 18:00:00 19,0 8,3 19,2 23,0 15,9 9,2 11 6 39 21 E 1000,8 31 28 0,0
19.05.2019 17:00:00 21,8 9,4 26,0 24,4 15,4 9,1 16 9 37 20 NE 1000,4 20 60 0,0
19.05.2019 16:00:00 21,4 7,5 25,9 24,4 14,8 9,1 17 9 28 15 ENE 1000,9 21 33 0,0
19.05.2019 15:00:00 20,3 8,5 27,4 24,8 14,1 9,1 16 8 27 15 NNE 1001,7 21 50 0,0
19.05.2019 14:00:00 19,1 8,9 23,7 23,1 13,3 9,1 17 9 31 17 NNE 1002,1 18 33 0,0
19.05.2019 13:00:00 19,0 9,9 24,0 22,9 12,6 9,1 19 10 28 15 NE 1002,3 12 59 0,0
19.05.2019 12:00:00 18,7 9,9 24,2 20,5 12,0 9,1 11 6 29 15 NNE 1002,5 16 60 0,0
19.05.2019 11:00:00 16,5 9,4 21,5 17,6 11,6 9,1 21 11 32 17 NNE 1003,1 10 60 0,0
19.05.2019 10:00:00 15,5 9,1 20,2 14,3 11,5 9,1 19 10 31 17 NNE 1003,3 11 51 0,0
19.05.2019 09:00:00 13,4 9,0 14,2 12,3 11,4 9,1 19 10 32 18 NNE 1004,1 9 38 0,0
19.05.2019 08:00:00 12,6 9,1 15,0 11,1 11,5 9,1 23 13 35 19 NNE 1004,1 9 60 0,0
19.05.2019 07:00:00 11,5 8,7 11,8 10,0 11,7 9,1 23 12 31 17 NNE 1004,6 7 52 0,0
19.05.2019 06:00:00 11,4 8,7 9,6 9,8 12,0 9,1 22 12 38 21 NNE 1004,5 7 0 0,0
19.05.2019 05:00:00 11,9 9,0 9,3 9,5 12,3 9,0 17 9 26 14 NE 1004,4 7 0 0,0
19.05.2019 04:00:00 8,9 8,2 5,9 10,0 12,6 9,0 4 2 6 3 SSW 1005,0 6 0 0,0
19.05.2019 03:00:00 9,9 8,5 6,9 10,9 12,9 9,0 3 2 13 7 SSE 1004,8 6 0 0,0
19.05.2019 02:00:00 13,0 9,7 9,7 11,7 13,1 9,0 8 4 18 10 NE 1004,3 10 0 0,0
19.05.2019 01:00:00 13,2 9,8 10,0 12,6 13,3 9,0 4 2 16 9 WSW 1004,7 12 0 0,0
19.05.2019 00:00:00 14,6 10,1 12,5 13,1 13,6 9,0 8 4 16 9 N 1004,9 13 0 0,0
18.05.2019 23:00:00 14,9 10,2 13,5 13,5 13,8 9,0 9 5 19 10 E 1004,9 12 0 0,0
18.05.2019 22:00:00 15,2 10,0 13,0 14,3 14,0 9,0 9 5 23 12 ENE 1004,9 16 0 0,0
18.05.2019 21:00:00 16,0 8,8 14,1 15,4 14,2 9,0 12 6 19 11 ENE 1004,3 34 0 0,0
18.05.2019 20:00:00 16,9 8,9 14,4 17,0 14,2 9,0 7 4 17 9 NE 1004,0 44 9 0,0
18.05.2019 19:00:00 17,8 8,9 17,4 18,6 14,0 9,0 13 7 28 15 ENE 1003,8 42 12 0,0
18.05.2019 18:00:00 18,3 8,5 19,5 20,1 13,6 9,0 18 10 33 18 E 1003,9 36 44 0,0
18.05.2019 17:00:00 18,7 7,8 21,9 21,3 13,1 9,0 22 12 34 18 ENE 1003,9 18 60 0,0
18.05.2019 16:00:00 17,7 8,5 20,6 21,4 12,5 9,0 27 14 39 21 ENE 1004,4 20 60 0,0
18.05.2019 15:00:00 16,4 8,6 21,1 20,9 11,9 9,0 23 13 42 23 ENE 1005,2 15 60 0,0
18.05.2019 14:00:00 14,6 7,6 19,0 19,7 11,2 9,0 32 17 45 24 NE 1005,9 10 60 0,0
18.05.2019 13:00:00 13,1 7,5 17,7 18,4 10,7 9,0 29 16 40 22 NE 1006,5 10 60 0,0
18.05.2019 12:00:00 11,8 7,3 16,2 16,6 10,2 9,0 29 16 41 22 NE 1007,0 11 60 0,0
18.05.2019 11:00:00 11,5 8,2 15,7 14,7 9,8 9,0 24 13 42 23 ENE 1007,1 8 60 0,0
18.05.2019 10:00:00 9,9 6,9 13,7 12,6 9,6 9,0 26 14 36 20 NE 1007,4 8 60 0,0
18.05.2019 09:00:00 10,0 7,5 13,0 10,4 9,5 9,0 25 13 40 22 NE 1007,2 10 59 0,0
18.05.2019 08:00:00 9,0 6,9 10,7 8,7 9,6 9,0 27 15 40 22 NE 1007,3 9 58 0,0
18.05.2019 07:00:00 8,5 6,9 8,2 7,7 9,8 9,0 24 13 35 19 NE 1007,3 12 27 0,0
18.05.2019 06:00:00 8,1 6,9 6,7 7,6 10,0 9,0 17 9 28 15 NE 1007,1 10 0 0,0
18.05.2019 05:00:00 8,6 7,3 7,0 7,5 10,3 9,0 20 11 29 15 NE 1006,7 11 0 0,0
18.05.2019 04:00:00 7,8 7,0 4,7 7,9 10,5 9,0 3 2 18 10 SE 1007,2 15 0 0,0
18.05.2019 03:00:00 9,3 7,4 6,9 8,4 10,8 9,0 9 5 18 10 NE 1007,1 23 0 0,0

tt = Température de l'air
td = dewpoint
tt 5cm = Température de l'air 5cm
tt -5cm = Température de l'air -5cm
tt -20cm = Température de l'air -20cm
tt -100cm = Température de l'air -100cm
ff = Vitesse du vent
fx = gusts
dd = Direction du vent
ppp = reduced air pressure
vv = visibility
sd = Ensoleillement
rr = Quantités de précipitations

stations d'obs. à proximité